Content
SEND FEEDBACK

Daily
Averages
Monthly
Summary
United States of America

CRYSTAL, NEVADA


Home > North America > United States > Nevada
Elevation: 2180 feet     Latitude: 36 25N     Longitude: 116 21W

WEATHER
 
SELECT A DAY
Number of Records: 169,293;   Date Range: 1/1/95 - 10/18/14
 
SHARE

PRINT THIS DATA

[ ← Previous Day ]
WEATHER ALMANAC - FEBRUARY 13, 2013
[ Next Day → ]
[ °C ]   °F
Weather ElementAverageHighLow
Temperature49.2 °F61 °F (2:52 pm)32 °F (6:52 am)
Dewpoint21.4 °F24.1 °F (7:52 pm)19 °F (4:52 am)
Humidity35.2 %59 % (6:52 am)22 % (1:52 pm)
Barometer30.20 in30.28 in (7:52 am)30.12 in (3:52 pm)
Wind Speed6.9 mph11.5 mph (8:52 pm)
Wind Gust18.4 mph (1:52 pm)
Weather ElementAverage
Visibility10 mi
Wind DirectionENE (50.9 °)

Weather ElementTotal
Precipitation---
Heating Degree Days18.5 (Base 65)
Averaged from 22 records on February 13, 2013
WEATHER CONDITIONS BREAKOUT
WIND DIRECTION BREAKOUT
WEATHER BY HOUR - FEBRUARY 13, 2013
[ °C ]   °F
Local TimeTemperatureDewpointHumidityBarometerVisibilityWind DirectionWind SpeedGust SpeedPrecipitationEventsConditions
1:52 AM39.0 °F19.9 °F46 %30.24 in10.0 miVariable3.5 mphClear
2:52 AM41.0 °F21.0 °F45 %30.23 in10.0 miNNE (30°)9.2 mphClear
3:52 AM37.9 °F21.0 °F51 %30.24 in10.0 miNNE (20°)9.2 mphClear
4:52 AM33.1 °F19.0 °F56 %30.25 in10.0 miESE (110°)6.9 mphClear
6:52 AM32.0 °F19.0 °F59 %30.27 in10.0 miSouth (170°)4.6 mphClear
7:52 AM43.0 °F19.0 °F38 %30.28 in10.0 miENE (70°)5.8 mphClear
8:52 AM46.9 °F19.9 °F34 %30.28 in10.0 miNNE (30°)6.9 mphClear
9:52 AM50.0 °F19.9 °F31 %30.27 in10.0 miVariable4.6 mphClear
10:52 AM54.0 °F19.9 °F26 %30.26 in10.0 miVariable4.6 mphClear
11:52 AM57.0 °F19.9 °F24 %30.21 in10.0 miNNE (30°)8.1 mphClear
12:52 PM59.0 °F21.0 °F23 %30.18 in10.0 miNNE (20°)5.8 mphClear
1:52 PM60.1 °F21.0 °F22 %30.15 in10.0 miNE (40°)9.2 mph18.4 mphClear
2:52 PM61.0 °F21.9 °F22 %30.13 in10.0 miENE (60°)8.1 mphClear
3:52 PM61.0 °F21.9 °F22 %30.12 in10.0 miEast (80°)4.6 mphClear
4:52 PM59.0 °F21.0 °F23 %30.13 in10.0 miEast (100°)4.6 mphClear
5:52 PM54.0 °F21.0 °F28 %30.14 in10.0 miESE (110°)5.8 mphClear
6:52 PM51.1 °F23.0 °F33 %30.16 in10.0 miENE (60°)9.2 mphClear
7:52 PM50.0 °F24.1 °F36 %30.15 in10.0 miNE (40°)9.2 mphClear
8:52 PM48.9 °F24.1 °F38 %30.16 in10.0 miNE (50°)11.5 mphClear
9:52 PM48.0 °F24.1 °F39 %30.17 in10.0 miNE (50°)9.2 mphClear
10:52 PM48.9 °F24.1 °F38 %30.16 in10.0 miNE (50°)11.5 mphClear
11:52 PM46.9 °F24.1 °F41 %30.16 in10.0 miCalmClear
Hourly data recorded from KDRA, located miles away from Crystal, Nevada







STORIES FROM OUR PARTNERS